Location: Dannhausen
(51.8650°N, 10.1026°E)
Time: 23:31:56
(UTC+00:00)

Cosmos 2181 Rocket - Pass Details

Date: 09 April 2020
Orbit: 952 x 1014 km, 82.9° (Epoch: 27 May)

Event Time Altitude Azimuth Distance (km) Brightness Sun altitude
Rises 19:28:19 0° 171° (S) 3,675 6.6 -12.3°
Reaches altitude 10° 19:30:53 10° 167° (SSE) 2,722 5.9 -12.7°
Maximum altitude 19:36:54 54° 92° (E) 1,165 4.1 -13.5°
Drops below altitude 10° 19:42:53 10° 17° (NNE) 2,704 6.5 -14.2°
Sets 19:45:26 0° 13° (NNE) 3,649 7.3 -14.6°
